Regional Weather Roundup
Issued by NWS

Home | Current Version | Previous Version | Graphics & Text | Print | Product List | Glossary On
Versions: 1 2 3 4 5 6 7 8 9 10 11 12 13 14 15 16 17 18 19 20 21 22 23 24 25 26 27 28 29 30 31 32 33 34 35 36 37 38 39 40 41 42 43 44 45 46 47 48 49
000
ASUS45 KBOU 232107
RWRCO

WEATHER ROUNDUP FOR COLORADO
NATIONAL WEATHER SERVICE DENVER/BOULDER CO
200 PM MST SUN NOV 23 2014

NOTE: "FAIR" INDICATES FEW OR NO CLOUDS BELOW 12000 FEET WITH NO
SIGNIFICANT WEATHER AND/OR OBSTRUCTIONS TO VISIBILITY.

COZ001>005-013-030-031-232200-
...NORTHWEST COLORADO...

CITY           SKY/WX    TMP DP  RH WIND       PRES   REMARKS
CRAIG          PTSUNNY   30  19  63 NW16G25   29.97S WCI  19
HAYDEN         PTSUNNY   28  16  59 NW17G29   29.93S WCI  16
MEEKER         PTSUNNY   33  19  56 NW8       29.98S WCI  26
MOUNT WERNER   NOT AVBL
STEAMBOAT SPGS CLOUDY    26  18  70 W9        29.91R WCI  17
WALDEN         PTSUNNY   23  10  58 NW25G33   29.83S WCI   7
$$

COZ006>008-011-232200-
...WEST CENTRAL VALLEYS...

CITY           SKY/WX    TMP DP  RH WIND       PRES   REMARKS
GRAND JUNCTION MOSUNNY   40  24  53 W16       30.00S
MONTROSE       CLOUDY    34  24  67 N22G37    30.00R WCI  22
EAGLE          PTSUNNY   34  18  51 W13G20    29.92R WCI  25
RIFLE          PTSUNNY   34  20  56 W15G21    29.99R WCI  24
DELTA          PTSUNNY   43  23  44 W13G31    29.97S
NUCLA          PTSUNNY   41  14  33 NW22G30   30.02S
$$

COZ017>023-064>068-232200-
...SOUTHWEST COLORADO...

CITY           SKY/WX    TMP DP  RH WIND       PRES   REMARKS
DURANGO        MOSUNNY   40   9  28 NW22G33   29.83R
CORTEZ         PTSUNNY   40  15  36 NW17G28   29.97F
PAGOSA SPRINGS MOSUNNY   37  -1  20 NW13G21   29.78S
TELLURIDE      LGT SNOW  22  15  75 NW8G22    29.94R VSB 3/4 WCI  12
WOLF CREEK PAS MOSUNNY   14   3  62 MISG      29.78S
$$

COZ009-010-012-014-032>034-037-058>063-232200-
...CENTRAL COLORADO...

CITY           SKY/WX    TMP DP  RH WIND       PRES   REMARKS
ASPEN          LGT SNOW  25  17  72 N16G28    29.88R WCI  12
BUENA VISTA    MOSUNNY   33  10  38 NW21G30   29.77R WCI  21
COPPER MTN     CLOUDY    12   5  73 W31G43    29.73F WCI -10
BERTHOUD PASS  CLOUDY     5   1  85 NW25      29.71R WCI -18
COTTONWOOD PAS MOSUNNY   28   3  34 W16G28    29.77R WCI  17
GUNNISON       PTSUNNY   27  16  63 SW7       29.88R WCI  19
KREMMLING      CLOUDY    30  14  51 NW18G29   29.86R WCI  18
LEADVILLE      SNOW      16  11  80 N10G18    29.78S VSB 1/2 WCI   4
MONARCH PASS     N/A     10   7  85 MISG      29.86S
SALIDA         MOSUNNY   38   2  21 NW16G28   29.84R
SUNLIGHT       CLOUDY   N/A N/A N/A W6        29.89S
WILKERSON PASS LGT SNOW  19   7  58 NW14G23   29.75S WCI   6
$$

COZ069>075-232200-
...SAN LUIS VALLEY/SANGRE DE CRISTO MOUNTAINS...

CITY           SKY/WX    TMP DP  RH WIND       PRES   REMARKS
ALAMOSA        PTSUNNY   38   2  22 NW25G33   29.75S
LA VETA PASS   LGT SNOW  21  18  86 CALM      29.75R VSB 3/4
SAGUACHE       MOSUNNY   32  16  51 NW37G45   29.77F WCI  16
$$

COZ035-036-038>040-232200-
...NORTHERN COLORADO FRONT RANGE...

CITY           SKY/WX    TMP DP  RH WIND       PRES   REMARKS
DENVER INTL AP PTSUNNY   41  12  30 N20G28    29.76R
DMNS CITY PARK   N/A     39  16  38 N7G16     29.78R
AURORA         PTSUNNY   39  12  33 N14G22    29.77R
FRONT RANGE AP NOT AVBL
ERIE MUNI ARPT CLOUDY    41  14  32 N12G20    29.76S
BOULDER MUN AP CLOUDY    41  16  36 SW3       29.77R
CENTENNIAL     CLOUDY    37  16  42 N10       29.77R
BROOMFIELD     PTSUNNY   41  14  33 N7        29.78R
FORT COLLINS   PTSUNNY   37  19  48 NW26G39   29.81R
LONGMONT       CLOUDY    44  15  30 W9        29.79R
$$

COZ041-046-047-076>085-087-088-232200-
...PIKES PEAK/PALMER DIVIDE AND SOUTHERN FOOTHILLS...

CITY           SKY/WX    TMP DP  RH WIND       PRES   REMARKS
COLO. SPRINGS  FLURRIES  36  17  46 NW7       29.78R
A. F. ACADEMY  CLOUDY    33  18  54 W6        29.76S WCI  28
ELLICOTT       NOT AVBL
FALCON         NOT AVBL
FORT CARSON    MIX PCPN  36  25  64 N8        29.78R
LIMON          CLOUDY    38  14  37 N18       29.75S
MONUMENT HILL  CLOUDY    32  16  51 N15       29.75R WCI  22
TRINIDAD       CLOUDY    33  24  69 N16       29.80S WCI  23
$$

COZ042>045-048>051-090-091-232200-
...NORTHEAST COLORADO...

CITY           SKY/WX    TMP DP  RH WIND       PRES   REMARKS
GREELEY ARPT   MOSUNNY   45  12  26 N31G38    29.77R
AKRON          SUNNY     42  13  30 N31G39    29.75S
BURLINGTON     MOSUNNY   45  11  25 N26G37    29.71R
WRAY           MOSUNNY   49  11  21 NW29G37   29.72S
STERLING       SUNNY     46  18  31 N26       29.75S
HOLYOKE        MOSUNNY   46  12  25 NW32G40   29.71F
FORT MORGAN    MOSUNNY   43  11  27 N22G29    29.77S
$$

COZ086-089-092>099-232200-
...SOUTHEAST COLORADO...

CITY           SKY/WX    TMP DP  RH WIND       PRES   REMARKS
PUEBLO         CLOUDY    38  29  70 SW9       29.79F
LA JUNTA       CLOUDY    46  16  30 N15       29.77S
LAMAR          PTSUNNY   50  13  22 N20G30    29.71S
SPRINGFIELD      N/A     44  10  25 N30G39    29.71R
$$



USA.gov is the U.S. government's official web portal to all federal, state and local government web resources and services.